Total_Precipitation_Accumulation
0.01 0.00 0.01 0.00 0.01 0.12 0.48 0.73 0.48 0.19 0.29 0.29 0.10 0.16 0.13 0.25 0.15 0.19 0.08 0.17 0.14 0.02 0.01 0.00 0.03 0.07 0.36 0.40 0.07 0.06 0.05 0.34 0.07 0.11 0.33 0.53 0.86 0.42 0.35 0.39 0.40 0.28 0.44 0.55 0.93 0.93 0.71 0.79 0.90 1.02 1.25 1.01 1.18 1.10 0.59 0.66 0.58 0.33 0.61 0.53 0.63 0.65 0.26 0.33 0.31 0.25 0.13 0.10 0.06 0.08 0.05 0.05 0.05 0.03 0.03 0.02 0.04 0.04 0.03 0.02 0.03 0.02 0.02 0.01 0.02 0.05 0.02 0.03 0.02 0.04 0.05 0.04 0.01 0.03 0.04 0.03 0.03
0.00 0.00 0.00 0.01 0.03 0.18 0.52 0.23 0.31 0.10 0.12 0.30 0.02 0.10 0.02 0.09 0.10 0.03 0.07 0.15 0.03 0.02 0.00 0.00 0.00 0.01 0.02 0.02 0.05 0.03 0.06 0.06 0.04 0.07 0.25 0.33 0.42 0.51 0.47 0.36 0.26 0.29 0.20 0.36 0.48 0.73 0.54 0.87 0.82 0.91 0.96 1.18 1.09 0.69 0.60 0.62 0.61 0.41 0.54 0.42 0.66 0.47 0.34 0.14 0.19 0.19 0.13 0.06 0.08 0.04 0.03 0.06 0.03 0.04 0.03 0.00 0.01 0.02 0.02 0.01 0.00 0.01 0.02 0.01 0.02 0.03 0.04 0.03 0.05 0.06 0.05 0.04 0.06 0.02 0.05 0.04 0.03
0.00 0.01 0.02 0.02 0.07 0.22 0.21 0.15 0.26 0.21 0.04 0.17 0.15 0.11 0.04 0.06 0.08 0.00 0.00 0.01 0.00 0.01 0.01 0.01 0.01 0.05 0.05 0.04 0.14 0.05 0.26 0.14 0.04 0.10 0.31 0.29 0.30 0.70 0.38 0.38 0.20 0.25 0.25 0.27 0.31 0.43 0.52 0.75 0.50 0.99 1.08 1.10 0.61 0.56 0.55 0.36 0.24 0.31 0.33 0.51 0.36 0.55 0.25 0.18 0.13 0.13 0.08 0.04 0.04 0.06 0.04 0.04 0.04 0.02 0.02 0.03 0.02 0.03 0.03 0.03 0.02 0.02 0.02 0.03 0.03 0.05 0.07 0.06 0.06 0.08 0.07 0.06 0.08 0.04 0.04 0.07 0.05
0.00 0.00 0.02 0.05 0.46 0.11 0.16 0.12 0.10 0.13 0.03 0.19 0.14 0.03 0.06 0.02 0.00 0.00 0.00 0.00 0.00 0.00 0.02 0.01 0.08 0.00 0.03 0.07 0.05 0.04 0.09 0.14 0.07 0.06 0.34 0.44 0.21 0.15 0.20 0.21 0.24 0.19 0.24 0.20 0.19 0.52 0.62 0.37 0.47 0.94 0.79 0.82 0.60 0.43 0.36 0.28 0.28 0.33 0.32 0.48 0.42 0.37 0.15 0.11 0.09 0.07 0.06 0.02 0.04 0.05 0.03 0.05 0.03 0.02 0.04 0.02 0.05 0.05 0.02 0.02 0.02 0.05 0.05 0.05 0.06 0.06 0.03 0.03 0.06 0.05 0.09 0.03 0.03 0.04 0.03 0.03 0.04
0.00 0.02 0.01 0.06 0.16 0.14 0.10 0.03 0.13 0.22 0.07 0.09 0.06 0.06 0.02 0.00 0.00 0.00 0.00 0.00 0.00 0.00 0.00 0.01 0.04 0.02 0.03 0.06 0.04 0.08 0.11 0.12 0.16 0.12 0.19 0.21 0.10 0.19 0.25 0.14 0.24 0.21 0.22 0.40 0.37 0.50 0.54 0.28 0.39 0.81 0.81 0.59 0.44 0.38 0.41 0.25 0.23 0.29 0.19 0.22 0.19 0.16 0.15 0.08 0.08 0.07 0.04 0.04 0.03 0.06 0.03 0.05 0.05 0.04 0.04 0.06 0.06 0.03 0.02 0.04 0.02 0.04 0.03 0.05 0.05 0.03 0.03 0.04 0.06 0.07 0.07 0.03 0.03 0.03 0.03 0.02 0.04
0.03 0.01 0.02 0.05 0.15 0.00 0.02 0.08 0.09 0.01 0.01 0.05 0.12 0.03 0.01 0.00 0.00 0.00 0.00 0.00 0.00 0.00 0.00 0.02 0.04 0.06 0.05 0.03 0.02 0.06 0.10 0.26 0.09 0.07 0.10 0.19 0.13 0.09 0.11 0.09 0.15 0.22 0.25 0.32 0.46 0.34 0.40 0.24 0.30 0.28 0.53 0.42 0.28 0.34 0.23 0.17 0.21 0.25 0.19 0.21 0.18 0.24 0.10 0.07 0.09 0.06 0.05 0.04 0.03 0.04 0.04 0.05 0.03 0.04 0.04 0.04 0.04 0.02 0.03 0.03 0.02 0.02 0.02 0.01 0.05 0.04 0.05 0.06 0.06 0.04 0.06 0.04 0.05 0.04 0.03 0.01 0.01
0.05 0.04 0.01 0.05 0.02 0.05 0.05 0.05 0.00 0.01 0.00 0.00 0.01 0.01 0.00 0.00 0.00 0.00 0.00 0.00 0.00 0.00 0.00 0.00 0.00 0.00 0.05 0.05 0.01 0.05 0.03 0.02 0.03 0.06 0.03 0.12 0.06 0.07 0.08 0.10 0.10 0.19 0.16 0.16 0.24 0.34 0.36 0.24 0.33 0.52 0.39 0.35 0.25 0.36 0.31 0.17 0.12 0.17 0.21 0.22 0.15 0.15 0.10 0.07 0.06 0.07 0.05 0.03 0.03 0.04 0.04 0.03 0.04 0.03 0.02 0.02 0.02 0.04 0.01 0.03 0.03 0.04 0.03 0.02 0.03 0.03 0.03 0.06 0.05 0.05 0.06 0.05 0.02 0.02 0.03 0.02 0.04
0.01 0.12 0.06 0.05 0.05 0.07 0.00 0.00 0.06 0.01 0.00 0.06 0.00 0.01 0.00 0.00 0.00 0.00 0.00 0.00 0.00 0.00 0.00 0.00 0.00 0.03 0.14 0.02 0.21 0.21 0.03 0.03 0.01 0.01 0.03 0.04 0.04 0.06 0.10 0.08 0.13 0.11 0.14 0.19 0.20 0.28 0.27 0.24 0.25 0.22 0.40 0.26 0.33 0.22 0.24 0.15 0.13 0.16 0.17 0.20 0.14 0.15 0.10 0.11 0.08 0.08 0.05 0.05 0.05 0.04 0.02 0.03 0.05 0.03 0.03 0.02 0.02 0.02 0.02 0.03 0.04 0.02 0.02 0.03 0.04 0.09 0.07 0.02 0.02 0.03 0.06 0.03 0.03 0.02 0.02 0.04 0.02
0.01 0.00 0.00 0.05 0.05 0.00 0.00 0.00 0.00 0.00 0.00 0.00 0.00 0.00 0.00 0.00 0.00 0.01 0.01 0.00 0.00 0.00 0.00 0.00 0.00 0.02 0.15 0.09 0.08 0.11 0.03 0.01 0.00 0.02 0.03 0.05 0.06 0.05 0.08 0.06 0.07 0.13 0.14 0.14 0.20 0.19 0.26 0.27 0.32 0.23 0.22 0.26 0.13 0.17 0.12 0.13 0.12 0.15 0.17 0.13 0.11 0.09 0.11 0.08 0.07 0.05 0.04 0.06 0.03 0.04 0.04 0.03 0.04 0.02 0.02 0.01 0.02 0.01 0.02 0.01 0.03 0.02 0.03 0.03 0.03 0.03 0.02 0.02 0.01 0.02 0.04 0.04 0.01 0.02 0.01 0.02 0.03
0.02 0.02 0.06 0.03 0.04 0.06 0.07 0.00 0.00 0.00 0.00 0.00 0.00 0.00 0.00 0.00 0.00 0.00 0.00 0.01 0.00 0.00 0.00 0.00 0.00 0.01 0.04 0.04 0.11 0.07 0.11 0.02 0.04 0.09 0.05 0.06 0.07 0.06 0.09 0.08 0.06 0.06 0.10 0.14 0.17 0.26 0.18 0.29 0.17 0.20 0.21 0.15 0.15 0.21 0.13 0.12 0.09 0.08 0.08 0.07 0.12 0.09 0.08 0.05 0.08 0.04 0.04 0.03 0.04 0.03 0.02 0.01 0.02 0.02 0.01 0.01 0.01 0.00 0.00 0.01 0.03 0.02 0.02 0.01 0.02 0.01 0.07 0.04 0.05 0.03 0.03 0.01 0.02 0.03 0.03 0.02 0.02
0.36 0.08 0.01 0.07 0.01 0.02 0.01 0.00 0.01 0.00 0.00 0.00 0.00 0.00 0.00 0.00 0.00 0.00 0.00 0.00 0.00 0.00 0.00 0.00 0.00 0.00 0.02 0.09 0.13 0.07 0.03 0.03 0.03 0.07 0.06 0.07 0.07 0.05 0.06 0.05 0.05 0.05 0.07 0.16 0.17 0.15 0.16 0.29 0.20 0.13 0.14 0.07 0.12 0.14 0.12 0.05 0.05 0.07 0.07 0.08 0.07 0.06 0.07 0.05 0.06 0.02 0.04 0.04 0.03 0.01 0.01 0.01 0.01 0.01 0.00 0.00 0.01 0.00 0.00 0.02 0.01 0.02 0.01 0.01 0.06 0.06 0.03 0.09 0.06 0.04 0.05 0.03 0.01 0.01 0.02 0.02 0.04
0.22 0.08 0.01 0.06 0.03 0.10 0.02 0.03 0.00 0.00 0.06 0.00 0.00 0.00 0.00 0.00 0.00 0.00 0.00 0.00 0.00 0.00 0.00 0.00 0.00 0.01 0.03 0.02 0.17 0.22 0.05 0.05 0.04 0.03 0.08 0.06 0.07 0.06 0.05 0.04 0.03 0.06 0.09 0.08 0.09 0.11 0.15 0.18 0.25 0.30 0.11 0.09 0.09 0.09 0.06 0.06 0.07 0.03 0.06 0.06 0.06 0.06 0.06 0.05 0.05 0.04 0.08 0.02 0.03 0.02 0.01 0.01 0.02 0.01 0.00 0.02 0.01 0.00 0.00 0.01 0.00 0.00 0.01 0.04 0.08 0.12 0.06 0.12 0.07 0.07 0.05 0.10 0.06 0.03 0.04 0.03 0.03
0.04 0.00 0.14 0.04 0.02 0.08 0.06 0.06 0.01 0.00 0.01 0.01 0.00 0.00 0.00 0.00 0.00 0.00 0.00 0.00 0.00 0.00 0.01 0.00 0.00 0.00 0.00 0.02 0.17 0.09 0.09 0.03 0.02 0.02 0.04 0.04 0.08 0.06 0.06 0.08 0.11 0.14 0.06 0.06 0.06 0.08 0.10 0.17 0.20 0.32 0.16 0.13 0.12 0.09 0.06 0.07 0.07 0.05 0.06 0.07 0.04 0.05 0.06 0.04 0.01 0.02 0.03 0.02 0.04 0.03 0.02 0.03 0.02 0.00 0.01 0.01 0.00 0.01 0.02 0.02 0.00 0.00 0.06 0.10 0.18 0.22 0.23 0.15 0.13 0.18 0.24 0.09 0.09 0.04 0.13 0.03 0.03
0.02 0.05 0.02 0.02 0.03 0.01 0.06 0.01 0.05 0.04 0.00 0.00 0.00 0.00 0.00 0.00 0.00 0.00 0.00 0.00 0.00 0.01 0.00 0.00 0.00 0.00 0.02 0.02 0.36 0.12 0.03 0.02 0.01 0.01 0.03 0.04 0.06 0.05 0.07 0.10 0.11 0.06 0.07 0.09 0.05 0.06 0.13 0.11 0.19 0.18 0.16 0.27 0.24 0.18 0.09 0.07 0.04 0.04 0.05 0.05 0.05 0.05 0.02 0.01 0.02 0.02 0.01 0.02 0.02 0.02 0.01 0.02 0.01 0.01 0.02 0.02 0.01 0.02 0.00 0.00 0.01 0.05 0.07 0.13 0.26 0.23 0.18 0.20 0.24 0.34 0.28 0.18 0.18 0.12 0.14 0.07 0.14
0.00 0.06 0.08 0.04 0.00 0.02 0.03 0.30 0.04 0.01 0.00 0.00 0.00 0.00 0.00 0.00 0.00 0.00 0.00 0.00 0.00 0.00 0.00 0.00 0.00 0.00 0.01 0.01 0.08 0.03 0.02 0.01 0.01 0.01 0.03 0.04 0.04 0.06 0.08 0.08 0.08 0.05 0.06 0.07 0.13 0.12 0.10 0.10 0.11 0.11 0.12 0.16 0.12 0.18 0.33 0.16 0.05 0.09 0.04 0.05 0.02 0.02 0.03 0.02 0.01 0.01 0.01 0.01 0.02 0.02 0.01 0.01 0.01 0.01 0.02 0.04 0.01 0.01 0.00 0.00 0.01 0.04 0.07 0.06 0.13 0.19 0.27 0.29 0.39 0.36 0.54 0.22 0.27 0.26 0.24 0.21 0.17
0.00 0.00 0.11 0.08 0.09 0.03 0.00 0.06 0.00 0.01 0.00 0.00 0.00 0.00 0.00 0.00 0.00 0.00 0.00 0.01 0.00 0.00 0.00 0.00 0.00 0.01 0.00 0.00 0.01 0.00 0.00 0.00 0.01 0.01 0.02 0.04 0.06 0.09 0.10 0.08 0.06 0.07 0.08 0.09 0.18 0.13 0.08 0.09 0.12 0.15 0.17 0.10 0.12 0.11 0.13 0.20 0.08 0.06 0.07 0.07 0.03 0.06 0.03 0.03 0.02 0.03 0.03 0.02 0.03 0.03 0.02 0.03 0.03 0.02 0.03 0.03 0.01 0.02 0.01 0.03 0.02 0.05 0.15 0.12 0.15 0.18 0.19 0.29 0.38 0.35 0.42 0.51 0.51 0.30 0.31 0.36 0.44
0.00 0.00 0.23 0.03 0.16 0.03 0.04 0.05 0.05 0.18 0.01 0.00 0.00 0.00 0.00 0.00 0.00 0.00 0.00 0.00 0.00 0.00 0.00 0.00 0.00 0.00 0.00 0.00 0.00 0.00 0.01 0.00 0.01 0.01 0.02 0.09 0.09 0.17 0.20 0.16 0.11 0.11 0.12 0.12 0.14 0.14 0.13 0.13 0.08 0.22 0.13 0.06 0.16 0.09 0.09 0.10 0.08 0.10 0.12 0.08 0.07 0.05 0.08 0.04 0.03 0.05 0.02 0.02 0.02 0.01 0.03 0.07 0.17 0.06 0.10 0.07 0.03 0.09 0.01 0.02 0.10 0.12 0.21 0.30 0.54 0.43 0.32 0.51 0.37 0.55 0.72 0.82 0.53 0.33 0.44 0.66 0.65
0.00 0.17 0.30 0.08 0.01 0.02 0.01 0.01 0.00 0.00 0.02 0.00 0.00 0.00 0.00 0.00 0.00 0.00 0.00 0.00 0.00 0.00 0.00 0.00 0.00 0.00 0.00 0.00 0.00 0.00 0.00 0.01 0.02 0.01 0.04 0.07 0.07 0.13 0.15 0.13 0.13 0.16 0.12 0.19 0.19 0.14 0.13 0.20 0.10 0.11 0.12 0.11 0.12 0.09 0.08 0.06 0.13 0.19 0.12 0.09 0.08 0.07 0.05 0.09 0.05 0.07 0.07 0.06 0.03 0.03 0.12 0.14 0.19 0.20 0.18 0.12 0.04 0.10 0.17 0.06 0.19 0.34 0.25 0.42 0.54 0.68 0.48 0.33 0.44 0.51 0.62 0.68 0.60 0.49 0.60 0.73 0.84
0.00 0.03 0.03 0.09 0.00 0.00 0.03 0.01 0.00 0.04 0.01 0.00 0.00 0.00 0.00 0.00 0.00 0.00 0.02 0.00 0.00 0.00 0.00 0.00 0.00 0.00 0.00 0.00 0.00 0.00 0.00 0.03 0.03 0.00 0.02 0.02 0.04 0.03 0.07 0.08 0.07 0.08 0.13 0.14 0.19 0.13 0.10 0.11 0.10 0.08 0.08 0.10 0.12 0.11 0.12 0.12 0.07 0.10 0.15 0.09 0.07 0.07 0.15 0.05 0.09 0.07 0.10 0.06 0.23 0.14 0.20 0.15 0.10 0.16 0.17 0.15 0.12 0.05 0.07 0.06 0.18 0.22 0.27 0.44 0.42 0.63 0.84 0.74 0.55 0.57 0.80 0.81 0.65 0.69 0.34 0.48 0.52
0.00 0.00 0.18 0.02 0.00 0.00 0.00 0.00 0.00 0.00 0.00 0.00 0.00 0.00 0.00 0.00 0.00 0.00 0.01 0.01 0.00 0.02 0.02 0.00 0.00 0.01 0.00 0.00 0.00 0.00 0.01 0.02 0.01 0.03 0.01 0.02 0.02 0.02 0.02 0.04 0.05 0.03 0.06 0.09 0.06 0.12 0.07 0.10 0.09 0.10 0.06 0.08 0.10 0.09 0.11 0.34 0.10 0.11 0.10 0.11 0.10 0.09 0.09 0.12 0.21 0.15 0.21 0.12 0.20 0.15 0.19 0.11 0.15 0.26 0.09 0.05 0.07 0.08 0.20 0.13 0.16 0.25 0.19 0.24 0.21 0.44 0.45 0.62 0.58 0.35 0.43 0.57 0.47 0.47 0.36 0.34 0.09
0.00 0.00 0.01 0.02 0.00 0.00 0.00 0.00 0.00 0.00 0.00 0.00 0.00 0.00 0.00 0.00 0.00 0.00 0.00 0.00 0.00 0.00 0.00 0.00 0.00 0.00 0.00 0.00 0.00 0.01 0.01 0.02 0.03 0.01 0.01 0.01 0.05 0.03 0.01 0.02 0.03 0.02 0.03 0.05 0.09 0.10 0.08 0.07 0.07 0.07 0.08 0.13 0.09 0.05 0.04 0.13 0.06 0.09 0.11 0.22 0.17 0.10 0.08 0.15 0.17 0.24 0.29 0.28 0.25 0.19 0.19 0.14 0.22 0.12 0.12 0.15 0.04 0.07 0.22 0.11 0.26 0.36 0.21 0.28 0.05 0.23 0.42 0.27 0.38 0.35 0.11 0.13 0.20 0.28 0.32 0.15 0.21
0.00 0.00 0.00 0.01 0.00 0.01 0.00 0.00 0.00 0.00 0.00 0.00 0.00 0.00 0.00 0.00 0.00 0.00 0.04 0.11 0.00 0.00 0.00 0.00 0.00 0.00 0.00 0.00 0.00 0.00 0.00 0.01 0.01 0.01 0.01 0.00 0.01 0.03 0.03 0.01 0.01 0.02 0.03 0.04 0.04 0.13 0.07 0.06 0.04 0.12 0.07 0.09 0.07 0.05 0.06 0.03 0.05 0.07 0.09 0.11 0.09 0.10 0.12 0.11 0.24 0.14 0.27 0.27 0.28 0.11 0.10 0.13 0.13 0.10 0.08 0.14 0.04 0.07 0.14 0.19 0.18 0.30 0.14 0.11 0.21 0.24 0.30 0.32 0.26 0.20 0.13 0.13 0.07 0.18 0.22 0.26 0.19
0.00 0.00 0.00 0.00 0.00 0.00 0.00 0.00 0.00 0.00 0.00 0.00 0.00 0.00 0.00 0.00 0.00 0.00 0.00 0.15 0.01 0.00 0.00 0.00 0.00 0.00 0.00 0.00 0.00 0.00 0.01 0.01 0.01 0.00 0.01 0.01 0.01 0.00 0.01 0.01 0.00 0.02 0.01 0.01 0.02 0.05 0.04 0.05 0.06 0.05 0.07 0.06 0.05 0.04 0.04 0.03 0.03 0.11 0.22 0.18 0.12 0.17 0.10 0.12 0.12 0.28 0.44 0.33 0.15 0.15 0.09 0.12 0.08 0.09 0.11 0.15 0.27 0.33 0.12 0.14 0.15 0.22 0.09 0.09 0.08 0.12 0.14 0.29 0.25 0.13 0.11 0.14 0.15 0.15 0.14 0.10 0.06
0.00 0.00 0.00 0.00 0.00 0.00 0.00 0.00 0.00 0.00 0.00 0.00 0.00 0.00 0.00 0.00 0.00 0.00 0.00 0.00 0.00 0.00 0.00 0.00 0.00 0.00 0.00 0.00 0.00 0.00 0.00 0.00 0.00 0.00 0.00 0.00 0.00 0.00 0.00 0.01 0.00 0.01 0.01 0.01 0.01 0.02 0.03 0.03 0.04 0.05 0.07 0.05 0.06 0.05 0.05 0.04 0.06 0.12 0.08 0.13 0.05 0.05 0.07 0.10 0.15 0.19 0.39 0.20 0.15 0.14 0.06 0.15 0.18 0.17 0.10 0.19 0.46 0.23 0.33 0.56 0.46 0.15 0.10 0.04 0.08 0.11 0.06 0.05 0.18 0.06 0.10 0.23 0.14 0.15 0.10 0.21 0.23
0.00 0.00 0.00 0.00 0.00 0.00 0.00 0.00 0.00 0.00 0.00 0.00 0.00 0.00 0.00 0.00 0.00 0.00 0.00 0.00 0.00 0.00 0.00 0.00 0.00 0.00 0.00 0.00 0.00 0.00 0.00 0.01 0.00 0.00 0.00 0.00 0.00 0.00 0.00 0.00 0.00 0.02 0.00 0.02 0.01 0.01 0.01 0.04 0.04 0.05 0.05 0.05 0.05 0.06 0.09 0.16 0.12 0.15 0.15 0.12 0.05 0.13 0.06 0.19 0.23 0.41 0.48 0.31 0.19 0.13 0.11 0.10 0.20 0.30 0.14 0.33 0.40 0.15 0.25 0.25 0.28 0.37 0.22 0.14 0.08 0.06 0.06 0.05 0.08 0.06 0.08 0.07 0.15 0.33 0.57 0.32 0.20
0.00 0.00 0.00 0.00 0.00 0.00 0.00 0.00 0.00 0.00 0.00 0.00 0.00 0.00 0.00 0.00 0.00 0.00 0.00 0.00 0.00 0.00 0.00 0.00 0.00 0.00 0.00 0.00 0.00 0.00 0.00 0.00 0.00 0.00 0.00 0.00 0.00 0.00 0.00 0.00 0.00 0.01 0.00 0.01 0.01 0.01 0.01 0.03 0.02 0.07 0.03 0.05 0.05 0.08 0.11 0.09 0.18 0.25 0.19 0.13 0.13 0.11 0.11 0.17 0.27 0.35 0.43 0.36 0.11 0.15 0.09 0.10 0.04 0.06 0.05 0.23 0.21 0.16 0.20 0.07 0.08 0.15 0.17 0.08 0.09 0.11 0.11 0.14 0.10 0.09 0.05 0.06 0.04 0.24 0.30 0.22 0.36
0.00 0.00 0.00 0.00 0.00 0.00 0.00 0.00 0.00 0.00 0.00 0.00 0.00 0.00 0.00 0.00 0.00 0.00 0.00 0.00 0.00 0.00 0.00 0.00 0.00 0.00 0.00 0.00 0.00 0.00 0.00 0.00 0.00 0.00 0.01 0.01 0.01 0.01 0.00 0.01 0.00 0.00 0.00 0.00 0.01 0.01 0.01 0.02 0.02 0.02 0.03 0.03 0.04 0.06 0.05 0.04 0.06 0.07 0.15 0.17 0.24 0.34 0.27 0.29 0.52 0.46 0.49 0.17 0.12 0.19 0.04 0.09 0.05 0.02 0.14 0.12 0.12 0.26 0.16 0.09 0.06 0.09 0.11 0.19 0.17 0.13 0.15 0.11 0.05 0.09 0.09 0.11 0.16 0.08 0.04 0.11 0.08
0.00 0.00 0.00 0.00 0.00 0.00 0.00 0.00 0.00 0.00 0.00 0.00 0.00 0.00 0.00 0.00 0.00 0.00 0.00 0.00 0.00 0.00 0.00 0.00 0.00 0.00 0.00 0.00 0.00 0.00 0.00 0.00 0.00 0.00 0.00 0.01 0.01 0.00 0.00 0.00 0.00 0.00 0.00 0.00 0.00 0.00 0.01 0.01 0.01 0.01 0.02 0.03 0.03 0.03 0.03 0.04 0.04 0.03 0.05 0.04 0.18 0.27 0.32 0.31 0.33 0.16 0.11 0.11 0.08 0.05 0.05 0.06 0.12 0.04 0.09 0.07 0.11 0.12 0.13 0.09 0.16 0.11 0.11 0.15 0.21 0.11 0.11 0.17 0.10 0.13 0.12 0.17 0.18 0.13 0.06 0.05 0.04
0.00 0.00 0.00 0.00 0.00 0.00 0.00 0.00 0.00 0.00 0.00 0.00 0.00 0.00 0.00 0.00 0.00 0.00 0.00 0.00 0.00 0.00 0.00 0.00 0.00 0.00 0.00 0.00 0.00 0.01 0.00 0.00 0.01 0.00 0.00 0.00 0.00 0.00 0.00 0.00 0.00 0.00 0.00 0.00 0.00 0.00 0.00 0.00 0.01 0.01 0.02 0.03 0.03 0.03 0.02 0.01 0.02 0.02 0.04 0.11 0.11 0.05 0.05 0.05 0.11 0.03 0.03 0.06 0.07 0.03 0.03 0.03 0.04 0.02 0.04 0.04 0.03 0.05 0.09 0.16 0.13 0.08 0.12 0.13 0.10 0.22 0.23 0.23 0.19 0.14 0.10 0.17 0.18 0.16 0.14 0.07 0.03
0.00 0.00 0.00 0.00 0.00 0.00 0.00 0.00 0.00 0.00 0.00 0.00 0.00 0.11 0.00 0.00 0.00 0.00 0.00 0.00 0.00 0.00 0.00 0.00 0.00 0.00 0.00 0.00 0.00 0.01 0.01 0.01 0.00 0.00 0.00 0.00 0.00 0.00 0.00 0.00 0.00 0.00 0.00 0.00 0.00 0.00 0.00 0.01 0.01 0.01 0.01 0.02 0.02 0.02 0.01 0.03 0.01 0.02 0.03 0.07 0.02 0.04 0.01 0.01 0.02 0.01 0.03 0.02 0.06 0.10 0.06 0.03 0.02 0.04 0.07 0.09 0.05 0.10 0.13 0.22 0.17 0.19 0.12 0.17 0.25 0.35 0.24 0.19 0.18 0.26 0.13 0.28 0.24 0.15 0.09 0.07 0.03
0.00 0.00 0.00 0.00 0.00 0.00 0.00 0.00 0.00 0.00 0.00 0.00 0.01 0.02 0.00 0.00 0.00 0.00 0.00 0.00 0.00 0.00 0.00 0.00 0.00 0.00 0.00 0.00 0.00 0.00 0.00 0.00 0.00 0.00 0.00 0.00 0.00 0.00 0.00 0.01 0.01 0.01 0.01 0.00 0.00 0.01 0.00 0.00 0.00 0.01 0.01 0.02 0.02 0.02 0.01 0.02 0.01 0.04 0.01 0.02 0.02 0.01 0.01 0.01 0.00 0.01 0.05 0.02 0.03 0.20 0.15 0.18 0.14 0.34 0.28 0.16 0.05 0.07 0.08 0.07 0.33 0.30 0.26 0.32 0.22 0.24 0.19 0.28 0.18 0.33 0.26 0.19 0.17 0.08 0.15 0.07 0.11
0.00 0.00 0.00 0.02 0.03 0.00 0.00 0.00 0.00 0.00 0.00 0.00 0.00 0.01 0.03 0.01 0.00 0.00 0.00 0.00 0.00 0.00 0.00 0.01 0.00 0.00 0.00 0.00 0.01 0.00 0.00 0.00 0.00 0.00 0.00 0.00 0.00 0.01 0.01 0.01 0.00 0.00 0.00 0.01 0.01 0.01 0.02 0.03 0.03 0.02 0.02 0.02 0.02 0.02 0.03 0.03 0.03 0.02 0.02 0.01 0.02 0.02 0.01 0.03 0.05 0.25 0.23 0.16 0.07 0.07 0.07 0.13 0.29 0.87 0.43 0.34 0.18 0.05 0.13 0.15 0.29 0.31 0.27 0.39 0.36 0.42 0.39 0.27 0.38 0.28 0.20 0.27 0.10 0.05 0.06 0.05 0.05
0.00 0.00 0.00 0.00 0.01 0.02 0.00 0.00 0.00 0.00 0.00 0.00 0.06 0.00 0.00 0.02 0.00 0.00 0.00 0.00 0.00 0.00 0.00 0.00 0.00 0.00 0.00 0.00 0.00 0.01 0.01 0.01 0.01 0.00 0.00 0.00 0.03 0.11 0.01 0.01 0.01 0.01 0.01 0.01 0.01 0.01 0.02 0.01 0.01 0.01 0.01 0.01 0.01 0.03 0.03 0.02 0.02 0.03 0.04 0.03 0.02 0.04 0.04 0.03 0.04 0.06 0.06 0.10 0.18 0.11 0.17 0.17 0.17 0.37 0.47 0.24 0.25 0.14 0.13 0.10 0.12 0.21 0.31 0.41 0.31 0.30 0.23 0.29 0.36 0.33 0.28 0.26 0.21 0.11 0.07 0.07 0.05
0.00 0.00 0.00 0.00 0.00 0.00 0.00 0.00 0.00 0.00 0.00 0.00 0.00 0.01 0.00 0.01 0.00 0.00 0.00 0.00 0.00 0.00 0.00 0.00 0.00 0.00 0.00 0.02 0.00 0.00 0.00 0.01 0.01 0.00 0.00 0.01 0.05 0.13 0.11 0.03 0.02 0.01 0.00 0.01 0.01 0.01 0.01 0.02 0.01 0.01 0.01 0.01 0.01 0.01 0.01 0.02 0.03 0.02 0.03 0.04 0.04 0.09 0.71 0.22 0.06 0.03 0.03 0.07 0.11 0.10 0.12 0.15 0.31 0.65 0.38 0.47 0.19 0.19 0.18 0.16 0.15 0.20 0.26 0.32 0.29 0.21 0.35 0.41 0.28 0.33 0.29 0.36 0.28 0.23 0.16 0.09 0.06
0.00 0.00 0.00 0.00 0.00 0.00 0.01 0.00 0.00 0.00 0.00 0.01 0.00 0.05 0.00 0.00 0.00 0.00 0.00 0.00 0.00 0.00 0.00 0.00 0.00 0.00 0.00 0.00 0.02 0.02 0.00 0.00 0.01 0.00 0.00 0.02 0.02 0.03 0.07 0.07 0.01 0.00 0.01 0.00 0.00 0.00 0.01 0.02 0.01 0.01 0.01 0.01 0.01 0.01 0.02 0.01 0.02 0.03 0.04 0.03 0.04 0.09 0.73 0.45 0.08 0.05 0.02 0.05 0.10 0.19 0.30 0.20 0.38 0.57 0.67 0.76 0.27 0.19 0.11 0.19 0.22 0.16 0.17 0.20 0.28 0.28 0.26 0.25 0.25 0.16 0.14 0.26 0.26 0.18 0.23 0.21 0.33
0.00 0.00 0.00 0.00 0.00 0.00 0.02 0.00 0.00 0.00 0.00 0.00 0.00 0.01 0.00 0.00 0.00 0.00 0.00 0.00 0.00 0.00 0.00 0.00 0.00 0.00 0.00 0.00 0.00 0.00 0.00 0.00 0.03 0.02 0.02 0.03 0.01 0.02 0.02 0.01 0.01 0.03 0.00 0.01 0.03 0.00 0.01 0.02 0.01 0.01 0.01 0.01 0.03 0.02 0.03 0.06 0.06 0.08 0.20 0.21 0.13 0.06 0.31 0.07 0.10 0.27 0.18 0.05 0.19 0.17 0.27 0.17 0.17 0.36 0.32 0.41 0.39 0.17 0.13 0.20 0.17 0.14 0.18 0.14 0.17 0.19 0.20 0.15 0.22 0.43 0.23 0.10 0.20 0.34 0.21 0.21 0.14
0.00 0.00 0.00 0.00 0.00 0.00 0.00 0.00 0.00 0.00 0.00 0.00 0.01 0.00 0.00 0.00 0.00 0.00 0.00 0.00 0.00 0.00 0.00 0.00 0.00 0.00 0.00 0.00 0.00 0.00 0.00 0.00 0.00 0.00 0.01 0.00 0.00 0.01 0.02 0.00 0.05 0.00 0.00 0.01 0.01 0.01 0.01 0.02 0.02 0.02 0.01 0.01 0.02 0.07 0.06 0.07 0.16 0.34 0.35 0.36 0.59 1.04 0.81 0.34 0.09 0.13 0.04 0.16 0.55 0.46 0.19 0.17 0.18 0.16 0.15 0.24 0.34 0.29 0.19 0.20 0.14 0.14 0.27 0.15 0.18 0.25 0.26 0.25 0.51 0.54 0.15 0.38 0.24 0.35 0.29 0.16 0.14
0.00 0.00 0.00 0.00 0.00 0.00 0.00 0.00 0.00 0.00 0.00 0.00 0.00 0.00 0.00 0.00 0.00 0.00 0.00 0.00 0.00 0.00 0.00 0.00 0.00 0.00 0.00 0.00 0.00 0.00 0.00 0.00 0.00 0.00 0.01 0.02 0.01 0.01 0.00 0.00 0.00 0.01 0.00 0.00 0.01 0.01 0.03 0.04 0.05 0.03 0.03 0.03 0.02 0.07 0.11 0.10 0.19 0.19 0.19 0.30 1.30 0.84 0.66 0.97 0.13 0.13 0.06 0.15 0.24 0.33 0.09 0.07 0.13 0.18 0.12 0.06 0.08 0.09 0.10 0.09 0.10 0.18 0.18 0.17 0.25 0.36 0.59 0.29 0.27 0.35 0.22 0.26 0.24 0.38 0.20 0.16 0.09
0.00 0.00 0.00 0.00 0.00 0.00 0.00 0.00 0.00 0.00 0.00 0.00 0.00 0.00 0.01 0.00 0.00 0.00 0.00 0.00 0.00 0.00 0.00 0.00 0.00 0.00 0.00 0.00 0.00 0.00 0.00 0.00 0.00 0.00 0.01 0.01 0.00 0.00 0.00 0.00 0.00 0.00 0.01 0.00 0.01 0.02 0.03 0.06 0.03 0.02 0.04 0.12 0.08 0.06 0.14 0.16 0.19 0.17 0.11 0.18 0.14 0.25 0.31 0.33 0.09 0.02 0.06 0.15 0.10 0.04 0.21 0.03 0.06 0.08 0.10 0.10 0.12 0.09 0.09 0.08 0.10 0.07 0.12 0.43 0.80 0.44 0.19 0.22 0.17 0.14 0.13 0.23 0.25 0.23 0.11 0.20 0.25
0.00 0.00 0.00 0.00 0.00 0.00 0.01 0.00 0.00 0.00 0.00 0.00 0.00 0.00 0.01 0.00 0.00 0.00 0.00 0.00 0.00 0.00 0.00 0.00 0.00 0.00 0.00 0.00 0.00 0.00 0.00 0.00 0.00 0.00 0.00 0.00 0.00 0.01 0.00 0.00 0.00 0.00 0.01 0.02 0.06 0.03 0.06 0.04 0.04 0.03 0.02 0.03 0.15 0.13 0.09 0.05 0.09 0.06 0.03 0.02 0.04 0.03 0.03 0.01 0.02 0.01 0.01 0.02 0.07 0.03 0.03 0.04 0.06 0.07 0.10 0.09 0.17 0.16 0.25 0.11 0.15 0.18 0.20 0.58 0.86 0.18 0.19 0.23 0.23 0.26 0.34 0.36 0.15 0.20 0.14 0.11 0.15
0.00 0.00 0.00 0.00 0.00 0.00 0.00 0.00 0.00 0.00 0.00 0.00 0.00 0.00 0.03 0.03 0.02 0.00 0.00 0.00 0.00 0.00 0.00 0.00 0.00 0.00 0.00 0.00 0.00 0.00 0.00 0.00 0.00 0.00 0.01 0.00 0.00 0.00 0.00 0.00 0.00 0.00 0.02 0.03 0.09 0.07 0.02 0.01 0.01 0.02 0.02 0.02 0.01 0.01 0.01 0.02 0.05 0.03 0.03 0.04 0.03 0.03 0.02 0.04 0.06 0.06 0.01 0.01 0.02 0.07 0.10 0.02 0.18 0.21 0.07 0.05 0.12 0.13 0.08 0.13 0.14 0.24 0.32 0.63 0.52 0.40 0.36 0.19 0.22 0.21 0.24 0.29 0.43 0.10 0.12 0.13 0.35
0.00 0.00 0.00 0.00 0.00 0.00 0.00 0.00 0.00 0.00 0.00 0.00 0.00 0.03 0.03 0.07 0.03 0.01 0.00 0.00 0.00 0.00 0.00 0.00 0.00 0.00 0.00 0.00 0.00 0.00 0.00 0.00 0.00 0.00 0.00 0.00 0.00 0.00 0.00 0.00 0.00 0.00 0.00 0.00 0.00 0.00 0.00 0.00 0.00 0.00 0.00 0.00 0.00 0.00 0.00 0.01 0.01 0.02 0.02 0.03 0.03 0.01 0.01 0.01 0.01 0.01 0.01 0.01 0.01 0.02 0.04 0.69 0.45 0.29 0.40 0.15 0.11 0.08 0.16 0.36 0.68 0.42 0.31 0.06 0.12 0.33 0.34 0.43 0.15 0.14 0.17 0.12 0.16 0.37 0.28 0.58 0.92
0.00 0.00 0.00 0.00 0.00 0.00 0.00 0.00 0.00 0.01 0.01 0.00 0.00 0.02 0.11 0.10 0.15 0.02 0.02 0.00 0.00 0.00 0.00 0.00 0.00 0.00 0.00 0.00 0.00 0.00 0.00 0.00 0.00 0.00 0.00 0.00 0.00 0.00 0.00 0.00 0.00 0.00 0.00 0.00 0.00 0.00 0.00 0.00 0.00 0.00 0.00 0.00 0.00 0.00 0.00 0.00 0.00 0.01 0.01 0.01 0.00 0.01 0.00 0.00 0.00 0.01 0.01 0.02 0.08 0.13 0.15 0.31 0.59 0.40 0.34 0.03 0.04 0.04 0.12 0.23 0.17 0.13 0.12 0.31 0.46 0.48 0.34 0.26 0.19 0.29 0.34 0.82 0.72 0.37 0.96 1.34 0.55
0.00 0.00 0.00 0.00 0.00 0.00 0.00 0.00 0.00 0.00 0.00 0.00 0.00 0.00 0.05 0.04 0.02 0.02 0.01 0.02 0.01 0.00 0.00 0.00 0.00 0.00 0.00 0.00 0.00 0.00 0.00 0.00 0.00 0.00 0.00 0.00 0.00 0.00 0.00 0.00 0.00 0.00 0.00 0.00 0.00 0.00 0.00 0.00 0.00 0.00 0.00 0.00 0.00 0.00 0.00 0.00 0.00 0.00 0.00 0.00 0.00 0.00 0.00 0.00 0.01 0.00 0.01 0.02 0.01 0.02 0.06 0.21 0.27 0.06 0.02 0.01 0.02 0.03 0.05 0.10 0.19 0.23 0.40 0.12 0.40 0.19 0.16 0.12 0.19 0.72 0.70 1.37 0.45 0.96 1.79 1.84 0.14
0.00 0.00 0.00 0.00 0.00 0.00 0.00 0.00 0.00 0.01 0.01 0.06 0.00 0.00 0.03 0.00 0.01 0.00 0.00 0.02 0.00 0.00 0.00 0.00 0.00 0.00 0.00 0.00 0.00 0.00 0.00 0.00 0.00 0.00 0.00 0.00 0.00 0.00 0.00 0.00 0.00 0.00 0.00 0.00 0.00 0.00 0.00 0.00 0.00 0.00 0.00 0.00 0.00 0.00 0.00 0.00 0.01 0.01 0.05 0.04 0.03 0.01 0.01 0.02 0.01 0.02 0.02 0.04 0.02 0.01 0.01 0.01 0.00 0.04 0.07 0.08 0.01 0.02 0.03 0.06 0.08 0.07 0.11 0.09 0.40 0.26 0.14 0.12 0.68 0.81 0.67 0.36 0.97 1.86 0.56 0.18 0.15
0.00 0.00 0.00 0.00 0.00 0.00 0.00 0.00 0.00 0.00 0.01 0.03 0.00 0.00 0.05 0.00 0.01 0.00 0.00 0.00 0.00 0.01 0.00 0.00 0.00 0.00 0.00 0.00 0.00 0.00 0.00 0.00 0.00 0.00 0.00 0.00 0.00 0.00 0.00 0.00 0.00 0.00 0.00 0.00 0.00 0.00 0.00 0.00 0.00 0.00 0.00 0.00 0.00 0.00 0.00 0.00 0.00 0.00 0.00 0.00 0.00 0.02 0.05 0.02 0.03 0.05 0.06 0.02 0.01 0.00 0.00 0.01 0.01 0.01 0.02 0.04 0.03 0.03 0.05 0.06 0.06 0.06 0.15 0.31 0.34 0.23 0.15 0.42 1.15 0.32 0.12 0.22 0.58 0.84 0.63 0.63 0.21
0.00 0.00 0.00 0.00 0.00 0.00 0.00 0.00 0.00 0.01 0.01 0.00 0.00 0.01 0.00 0.02 0.01 0.01 0.00 0.00 0.00 0.00 0.00 0.00 0.00 0.00 0.00 0.00 0.00 0.00 0.00 0.00 0.00 0.00 0.00 0.00 0.00 0.00 0.00 0.00 0.00 0.00 0.00 0.00 0.00 0.00 0.00 0.00 0.00 0.00 0.00 0.00 0.00 0.00 0.00 0.00 0.00 0.00 0.00 0.00 0.00 0.00 0.00 0.02 0.03 0.01 0.00 0.02 0.01 0.00 0.00 0.00 0.01 0.01 0.01 0.01 0.02 0.02 0.02 0.01 0.06 0.18 0.34 0.23 0.35 0.35 0.27 0.19 0.11 0.19 0.15 0.45 0.73 0.38 0.47 0.31 0.27
0.00 0.00 0.00 0.00 0.00 0.00 0.00 0.00 0.00 0.00 0.00 0.00 0.00 0.00 0.00 0.02 0.00 0.00 0.00 0.00 0.00 0.00 0.00 0.00 0.01 0.00 0.00 0.00 0.00 0.00 0.00 0.01 0.00 0.00 0.00 0.00 0.00 0.00 0.00 0.00 0.00 0.00 0.00 0.00 0.00 0.00 0.00 0.00 0.00 0.00 0.00 0.00 0.00 0.00 0.00 0.00 0.00 0.00 0.00 0.00 0.00 0.00 0.00 0.00 0.00 0.00 0.00 0.00 0.00 0.00 0.00 0.00 0.00 0.00 0.01 0.01 0.02 0.02 0.03 0.02 0.06 0.21 0.06 0.07 0.09 0.16 0.26 0.28 0.20 0.18 0.17 0.19 0.65 0.16 0.82 0.50 0.34
0.00 0.00 0.00 0.00 0.00 0.00 0.00 0.00 0.00 0.00 0.00 0.00 0.00 0.00 0.02 0.00 0.00 0.00 0.00 0.00 0.00 0.00 0.00 0.00 0.00 0.00 0.00 0.00 0.00 0.00 0.00 0.00 0.00 0.00 0.00 0.00 0.00 0.00 0.00 0.00 0.00 0.00 0.00 0.00 0.00 0.00 0.00 0.00 0.00 0.00 0.00 0.00 0.00 0.00 0.00 0.00 0.00 0.00 0.00 0.00 0.00 0.00 0.00 0.00 0.00 0.00 0.00 0.01 0.00 0.00 0.00 0.00 0.00 0.02 0.02 0.01 0.01 0.01 0.03 0.02 0.02 0.06 0.04 0.05 0.04 0.02 0.02 0.04 0.21 0.15 0.15 0.10 0.20 0.20 0.47 0.26 0.21
0.00 0.00 0.00 0.00 0.00 0.00 0.00 0.00 0.00 0.00 0.00 0.00 0.00 0.00 0.00 0.00 0.00 0.00 0.00 0.00 0.00 0.00 0.00 0.00 0.00 0.00 0.00 0.00 0.00 0.00 0.00 0.00 0.00 0.00 0.00 0.00 0.00 0.00 0.00 0.00 0.00 0.00 0.00 0.00 0.00 0.00 0.00 0.00 0.00 0.00 0.00 0.00 0.00 0.00 0.00 0.00 0.00 0.00 0.00 0.00 0.00 0.00 0.00 0.00 0.00 0.00 0.00 0.00 0.00 0.00 0.00 0.00 0.00 0.00 0.00 0.00 0.00 0.01 0.01 0.02 0.02 0.03 0.02 0.03 0.03 0.04 0.03 0.06 0.08 0.09 0.11 0.18 0.18 0.35 0.46 0.39 0.46
0.00 0.00 0.00 0.00 0.00 0.00 0.00 0.00 0.00 0.00 0.00 0.00 0.00 0.00 0.00 0.00 0.00 0.00 0.00 0.00 0.00 0.00 0.00 0.00 0.00 0.00 0.00 0.00 0.00 0.00 0.00 0.00 0.00 0.00 0.00 0.00 0.00 0.00 0.00 0.00 0.00 0.00 0.00 0.00 0.00 0.00 0.00 0.00 0.00 0.00 0.00 0.00 0.00 0.00 0.00 0.00 0.00 0.00 0.00 0.00 0.00 0.00 0.00 0.00 0.00 0.00 0.00 0.00 0.00 0.00 0.00 0.00 0.00 0.00 0.00 0.01 0.01 0.01 0.02 0.01 0.01 0.02 0.03 0.03 0.03 0.06 0.09 0.06 0.14 0.07 0.08 0.13 0.14 0.30 0.46 0.37 0.29
0.00 0.00 0.00 0.00 0.00 0.00 0.00 0.00 0.00 0.00 0.00 0.00 0.01 0.00 0.00 0.00 0.00 0.00 0.00 0.00 0.00 0.00 0.00 0.00 0.00 0.00 0.00 0.00 0.01 0.00 0.00 0.00 0.00 0.00 0.00 0.00 0.00 0.00 0.02 0.00 0.00 0.00 0.00 0.00 0.00 0.00 0.00 0.00 0.00 0.00 0.00 0.00 0.00 0.00 0.00 0.00 0.00 0.00 0.00 0.00 0.00 0.00 0.00 0.00 0.00 0.00 0.00 0.00 0.00 0.01 0.01 0.01 0.00 0.00 0.00 0.00 0.00 0.01 0.02 0.02 0.00 0.01 0.02 0.02 0.03 0.05 0.09 0.07 0.02 0.02 0.04 0.03 0.04 0.04 0.09 0.14 0.25
0.00 0.00 0.00 0.00 0.00 0.00 0.00 0.00 0.00 0.00 0.00 0.00 0.00 0.00 0.00 0.00 0.00 0.00 0.00 0.00 0.00 0.00 0.00 0.00 0.00 0.00 0.00 0.00 0.01 0.02 0.00 0.00 0.00 0.00 0.00 0.00 0.01 0.02 0.02 0.02 0.00 0.00 0.00 0.00 0.00 0.00 0.00 0.00 0.00 0.00 0.00 0.00 0.00 0.00 0.00 0.00 0.00 0.00 0.00 0.00 0.00 0.00 0.00 0.00 0.00 0.00 0.00 0.00 0.00 0.00 0.00 0.00 0.00 0.01 0.01 0.00 0.00 0.01 0.01 0.02 0.02 0.01 0.01 0.01 0.02 0.01 0.03 0.03 0.06 0.06 0.09 0.03 0.03 0.03 0.06 0.08 0.08
0.00 0.00 0.00 0.00 0.00 0.00 0.00 0.00 0.00 0.00 0.00 0.00 0.00 0.00 0.02 0.00 0.01 0.00 0.00 0.00 0.00 0.00 0.00 0.00 0.00 0.00 0.00 0.00 0.00 0.00 0.00 0.00 0.00 0.00 0.00 0.00 0.01 0.02 0.00 0.05 0.01 0.00 0.00 0.00 0.00 0.00 0.00 0.00 0.00 0.00 0.00 0.00 0.00 0.00 0.00 0.00 0.00 0.00 0.00 0.00 0.00 0.00 0.00 0.00 0.00 0.00 0.00 0.00 0.00 0.00 0.01 0.01 0.01 0.01 0.00 0.01 0.00 0.01 0.01 0.01 0.01 0.02 0.03 0.02 0.02 0.02 0.02 0.03 0.04 0.03 0.04 0.02 0.03 0.03 0.08 0.05 0.11
0.00 0.00 0.00 0.00 0.00 0.00 0.00 0.00 0.00 0.00 0.00 0.00 0.00 0.00 0.00 0.00 0.01 0.00 0.00 0.00 0.00 0.00 0.00 0.00 0.00 0.00 0.00 0.00 0.00 0.00 0.00 0.02 0.01 0.01 0.00 0.00 0.00 0.01 0.02 0.01 0.00 0.00 0.00 0.00 0.00 0.00 0.00 0.00 0.00 0.00 0.00 0.00 0.00 0.00 0.00 0.00 0.00 0.00 0.00 0.00 0.00 0.00 0.00 0.00 0.00 0.00 0.00 0.00 0.00 0.00 0.00 0.00 0.00 0.00 0.01 0.01 0.02 0.01 0.01 0.01 0.01 0.02 0.02 0.01 0.01 0.01 0.01 0.01 0.02 0.03 0.03 0.03 0.04 0.03 0.03 0.05 0.06
0.00 0.00 0.00 0.00 0.00 0.00 0.00 0.00 0.00 0.00 0.00 0.00 0.00 0.00 0.00 0.00 0.00 0.00 0.00 0.00 0.00 0.00 0.00 0.00 0.00 0.00 0.00 0.00 0.00 0.00 0.00 0.00 0.00 0.01 0.01 0.00 0.01 0.02 0.05 0.05 0.02 0.02 0.00 0.00 0.00 0.00 0.00 0.00 0.00 0.00 0.00 0.00 0.00 0.00 0.00 0.00 0.00 0.00 0.00 0.00 0.00 0.00 0.00 0.00 0.00 0.00 0.00 0.00 0.00 0.00 0.00 0.00 0.00 0.01 0.01 0.00 0.01 0.00 0.01 0.01 0.01 0.02 0.01 0.01 0.00 0.01 0.01 0.01 0.02 0.03 0.03 0.04 0.03 0.05 0.05 0.05 0.08
0.00 0.00 0.00 0.00 0.00 0.00 0.00 0.00 0.00 0.00 0.00 0.00 0.00 0.00 0.00 0.00 0.00 0.00 0.00 0.00 0.00 0.00 0.00 0.00 0.00 0.00 0.00 0.00 0.00 0.00 0.00 0.00 0.00 0.00 0.00 0.00 0.01 0.03 0.01 0.02 0.01 0.02 0.00 0.00 0.00 0.00 0.00 0.00 0.00 0.00 0.00 0.00 0.00 0.00 0.00 0.00 0.00 0.00 0.00 0.00 0.00 0.00 0.00 0.00 0.00 0.00 0.00 0.00 0.00 0.00 0.00 0.00 0.00 0.00 0.00 0.01 0.00 0.01 0.01 0.00 0.01 0.01 0.01 0.01 0.02 0.01 0.03 0.03 0.04 0.03 0.03 0.04 0.03 0.04 0.04 0.06 0.07
0.00 0.00 0.00 0.00 0.00 0.00 0.00 0.00 0.00 0.00 0.00 0.00 0.00 0.00 0.00 0.00 0.00 0.00 0.00 0.00 0.00 0.00 0.00 0.00 0.00 0.00 0.00 0.00 0.00 0.00 0.00 0.00 0.00 0.03 0.02 0.03 0.00 0.02 0.00 0.03 0.01 0.02 0.03 0.00 0.01 0.00 0.00 0.00 0.00 0.00 0.00 0.00 0.00 0.01 0.01 0.02 0.00 0.00 0.00 0.00 0.00 0.00 0.00 0.00 0.00 0.00 0.00 0.00 0.00 0.00 0.00 0.00 0.00 0.00 0.00 0.00 0.00 0.00 0.00 0.01 0.01 0.01 0.01 0.01 0.02 0.02 0.02 0.04 0.04 0.04 0.03 0.04 0.03 0.03 0.05 0.08 0.04